Location: Landeleau
(48.2273°N, 3.7285°W)
Time: 17:34:34
(UTC+00:00)

Meteor 1-16 Rocket - Pass Details

Date: 30 March 2020
Orbit: 791 x 907 km, 81.2° (Epoch: 25 May)

Event Time Altitude Azimuth Distance (km) Brightness Sun altitude
Exits shadow 20:40:15 19° 173° (S) 1,800 5.6 -19.2°
Maximum altitude 20:44:00 63° 97° (E) 903 4.0 -19.7°
Drops below altitude 10° 20:49:24 10° 17° (NNE) 2,435 6.8 -20.5°
Sets 20:51:52 0° 15° (NNE) 3,390 7.6 -20.9°
